Regional Weather Roundup
Issued by NWS

Home | Current Version | Previous Version | Text Only | Print | Product List | Glossary On
Versions: 1 2 3 4 5 6 7 8 9 10 11 12 13 14 15 16 17 18 19 20 21 22 23 24 25 26 27 28 29 30 31 32 33 34 35 36 37 38 39 40 41 42 43 44 45 46 47 48 49 50
000
ASUS44 KJAN 020403
RWRMS

MISSISSIPPI HOURLY WEATHER ROUNDUP
NATIONAL WEATHER SERVICE JACKSON MS
1000 PM CST SUN MAR 01 2015

NOTE: "FAIR: INDICATES FEW OR NO CLOUDS BELOW 12,000 FEET WITH NO
SIGNIFICANT WEATHER AND/OR OBSTRUCTIONS TO VISIBILITY.

MSZ001>002-007>008-010>013-018>021-025>028-034>036-020500-
NORTHWEST MISSISSIPPI

CITY           SKY/WX    TMP DP  RH WIND       PRES   REMARKS
CLARKSDALE     CLOUDY    39  39 100 N17       30.39R WCI  30
CLEVELAND      CLOUDY    42  42 100 N12       30.34S FOG
GREENWOOD        N/A    N/A N/A N/A MISG      30.31S
GREENVILLE     LGT RAIN  43  42  97 N10       30.34R FOG
OLIVE BRANCH   CLOUDY    36 N/A N/A N10       30.39R WCI  28
OXFORD         CLOUDY    46  46 100 N6        30.35R FOG
TUNICA         RAIN      37  36  93 N10       30.40R WCI  30
$$

MSZ003>006-009-014>017-022>024-029>033-037>039-020500-
NORTHEAST MISSISSIPPI

CITY           SKY/WX    TMP DP  RH WIND       PRES   REMARKS
COLUMBUS AFB   CLOUDY    54  54 100 NE3       30.31S FOG
CORINTH        DRIZZLE   50  48  93 NW7       30.33S
GOLDN TRIANGLE CLOUDY    54  52  94 S7        30.30F
STARKVILLE     CLOUDY    52  52 100 E3        30.31S FOG
TUPELO         CLOUDY    52  50  93 E5        30.33F
$$

MSZ040-058-020500-
CENTRAL MISSISSIPPI

CITY           SKY/WX    TMP DP  RH WIND       PRES   REMARKS
JACKSON INTL   CLOUDY    58  57  97 CALM      30.30R
JACKSON HAWKNS CLOUDY    58  56  93 CALM      30.30R FOG
MERIDIAN KEY   CLOUDY    55  54  96 CALM      30.30F
MERIDIAN NAS   CLOUDY    55  54  96 E5        30.32R
VICKSBURG      CLOUDY    48  47  96 N6        30.32R FOG
$$

MSZ059>079-020500-
SOUTH MISSISSIPPI

CITY           SKY/WX    TMP DP  RH WIND       PRES   REMARKS
BROOKHAVEN     CLOUDY    59  59 100 CALM      30.32S
HATTIESBURG    HVY RAIN  58  57  97 SE12      30.33F FOG
MCCOMB         LGT RAIN  62  61  96 SE6       30.29S FOG
NATCHEZ        CLOUDY    55  54  94 N5        30.31R
PINE BELT      CLOUDY    57  54  88 SE12      30.31S
$$

MSZ080>082-020500-
COASTAL MISSISSIPPI

CITY           SKY/WX    TMP DP  RH WIND       PRES   REMARKS
BILOXI         CLOUDY    59  59 100 NE8       30.34S FOG
PASCAGOULA     CLOUDY    58  57  97 NE7       30.35R FOG
GULFPORT       LGT RAIN  59  58  96 NE7       30.34R FOG
$$


USA.gov is the U.S. government's official web portal to all federal, state and local government web resources and services.